| time (UTC) | temp C | wind direction | speed KPH | gust KPH | rain 1hr cm | rain 24hr cm | rain mn cm | humidity % | barometer mb |
| 20260507175026 | 20 | 223 | 20.9 | 40.2 | 0.00 | 0.00 | 0.00 | 39 | 1011.9 |
| 20260507174547 | 20 | 188 | 22.5 | 37.0 | 0.00 | 0.00 | 0.00 | 40 | 1011.9 |
| 20260507174029 | 19 | 235 | 20.9 | 41.8 | 0.00 | 0.00 | 0.00 | 41 | 1012.0 |
| 20260507173525 | 18 | 198 | 20.9 | 41.8 | 0.00 | 0.00 | 0.00 | 41 | 1012.1 |
| 20260507173119 | 18 | 222 | 22.5 | 38.6 | 0.00 | 0.00 | 0.00 | 40 | 1012.3 |
| 20260507172523 | 18 | 257 | 24.1 | 38.6 | 0.00 | 0.00 | 0.00 | 42 | 1012.3 |
| 20260507172026 | 18 | 217 | 20.9 | 35.4 | 0.00 | 0.00 | 0.00 | 44 | 1012.5 |
| 20260507171545 | 18 | 206 | 20.9 | 35.4 | 0.00 | 0.00 | 0.00 | 44 | 1012.7 |
| 20260507171026 | 18 | 203 | 22.5 | 35.4 | 0.00 | 0.00 | 0.00 | 44 | 1012.9 |
| 20260507170526 | 18 | 210 | 20.9 | 33.8 | 0.00 | 0.00 | 0.00 | 44 | 1013.0 |
| 20260507170042 | 17 | 189 | 20.9 | 33.8 | 0.00 | 0.00 | 0.00 | 44 | 1013.0 |
| 20260507165525 | 17 | 211 | 22.5 | 33.8 | 0.00 | 0.00 | 0.00 | 44 | 1013.1 |
| 20260507165025 | 17 | 200 | 19.3 | 33.8 | 0.00 | 0.00 | 0.00 | 46 | 1013.1 |
| 20260507164541 | 17 | 226 | 20.9 | 33.8 | 0.00 | 0.00 | 0.00 | 45 | 1013.2 |
| 20260507164026 | 17 | 231 | 20.9 | 33.8 | 0.00 | 0.00 | 0.00 | 47 | 1013.2 |
| 20260507163527 | 17 | 210 | 19.3 | 35.4 | 0.00 | 0.00 | 0.00 | 47 | 1013.3 |
| 20260507163042 | 17 | 223 | 19.3 | 35.4 | 0.00 | 0.00 | 0.00 | 48 | 1013.3 |
| 20260507162528 | 16 | 216 | 19.3 | 33.8 | 0.00 | 0.00 | 0.00 | 49 | 1013.4 |
| 20260507162024 | 16 | 218 | 20.9 | 33.8 | 0.00 | 0.00 | 0.00 | 48 | 1013.5 |
| 20260507161551 | 16 | 182 | 19.3 | 33.8 | 0.00 | 0.00 | 0.00 | 50 | 1013.6 |
| 20260507161023 | 16 | 222 | 20.9 | 33.8 | 0.00 | 0.00 | 0.00 | 49 | 1013.6 |
| 20260507160525 | 16 | 191 | 19.3 | 30.6 | 0.00 | 0.00 | 0.00 | 51 | 1013.5 |
| 20260507160051 | 16 | 209 | 17.7 | 35.4 | 0.00 | 0.00 | 0.00 | 52 | 1013.6 |
| 20260507155527 | 15 | 227 | 19.3 | 35.4 | 0.00 | 0.00 | 0.00 | 52 | 1013.7 |
| 20260507155024 | 15 | 199 | 19.3 | 37.0 | 0.00 | 0.00 | 0.00 | 52 | 1013.8 |
| 20260507154541 | 15 | 232 | 17.7 | 37.0 | 0.00 | 0.00 | 0.00 | 54 | 1013.7 |
| 20260507154024 | 15 | 219 | 20.9 | 37.0 | 0.00 | 0.00 | 0.00 | 53 | 1013.9 |
| 20260507153530 | 15 | 192 | 16.1 | 27.4 | 0.00 | 0.00 | 0.00 | 55 | 1013.9 |
| 20260507153041 | 14 | 227 | 14.5 | 25.7 | 0.00 | 0.00 | 0.00 | 57 | 1014.0 |
| 20260507152525 | 14 | 212 | 14.5 | 29.0 | 0.00 | 0.00 | 0.00 | 58 | 1014.1 |
| 20260507152031 | 14 | 205 | 16.1 | 29.0 | 0.00 | 0.00 | 0.00 | 59 | 1014.2 |
| 20260507151542 | 13 | 241 | 14.5 | 27.4 | 0.00 | 0.00 | 0.00 | 59 | 1014.4 |
| 20260507151023 | 13 | 207 | 12.9 | 30.6 | 0.00 | 0.00 | 0.00 | 60 | 1014.3 |
| 20260507150523 | 13 | 242 | 17.7 | 30.6 | 0.00 | 0.00 | 0.00 | 59 | 1014.3 |
| 20260507150043 | 13 | 176 | 12.9 | 27.4 | 0.00 | 0.00 | 0.00 | 61 | 1014.4 |
| 20260507145524 | 13 | 217 | 14.5 | 25.7 | 0.00 | 0.03 | 0.00 | 62 | 1014.4 |
| 20260507145027 | 12 | 227 | 14.5 | 25.7 | 0.00 | 0.03 | 0.00 | 63 | 1014.5 |
| 20260507144541 | 12 | 233 | 16.1 | 25.7 | 0.00 | 0.03 | 0.00 | 64 | 1014.6 |
| 20260507144027 | 12 | 225 | 11.3 | 24.1 | 0.00 | 0.03 | 0.00 | 66 | 1014.6 |
| 20260507143525 | 12 | 227 | 14.5 | 24.1 | 0.00 | 0.03 | 0.00 | 67 | 1014.7 |
| 20260507143056 | 12 | 239 | 14.5 | 22.5 | 0.00 | 0.03 | 0.00 | 68 | 1014.8 |
| 20260507142525 | 11 | 221 | 14.5 | 25.7 | 0.00 | 0.03 | 0.00 | 69 | 1014.8 |
| 20260507142030 | 11 | 232 | 14.5 | 25.7 | 0.00 | 0.03 | 0.00 | 69 | 1014.9 |
| 20260507141550 | 11 | 217 | 17.7 | 25.7 | 0.00 | 0.03 | 0.00 | 70 | 1014.9 |
| 20260507141025 | 11 | 226 | 16.1 | 29.0 | 0.00 | 0.03 | 0.00 | 71 | 1015.0 |
| 20260507140528 | 10 | 230 | 14.5 | 29.0 | 0.00 | 0.03 | 0.00 | 72 | 1015.1 |
| 20260507140039 | 10 | 225 | 16.1 | 24.1 | 0.00 | 0.03 | 0.00 | 74 | 1015.3 |
| 20260507135525 | 10 | 222 | 14.5 | 25.7 | 0.00 | 0.03 | 0.00 | 74 | 1015.2 |
| 20260507135028 | 10 | 221 | 16.1 | 25.7 | 0.00 | 0.03 | 0.00 | 76 | 1015.5 |
| 20260507134552 | 9 | 256 | 11.3 | 22.5 | 0.00 | 0.03 | 0.00 | 77 | 1015.4 |
| 20260507134024 | 9 | 233 | 11.3 | 22.5 | 0.00 | 0.03 | 0.00 | 80 | 1015.6 |
| 20260507133525 | 8 | 232 | 11.3 | 19.3 | 0.00 | 0.03 | 0.00 | 81 | 1015.5 |
| 20260507133118 | 8 | 238 | 9.7 | 16.1 | 0.00 | 0.03 | 0.00 | 83 | 1015.5 |
| 20260507132529 | 8 | 231 | 9.7 | 16.1 | 0.00 | 0.03 | 0.00 | 84 | 1015.3 |
| 20260507132024 | 7 | 220 | 9.7 | 17.7 | 0.00 | 0.03 | 0.00 | 85 | 1015.4 |
| 20260507131547 | 7 | 238 | 9.7 | 17.7 | 0.00 | 0.03 | 0.00 | 85 | 1015.4 |
| 20260507131025 | 7 | 201 | 9.7 | 16.1 | 0.00 | 0.03 | 0.00 | 86 | 1015.4 |
| 20260507130524 | 7 | 203 | 8.0 | 17.7 | 0.00 | 0.03 | 0.00 | 87 | 1015.4 |
| 20260507130053 | 6 | 209 | 9.7 | 19.3 | 0.00 | 0.03 | 0.00 | 87 | 1015.5 |
| 20260507125525 | 6 | 213 | 9.7 | 19.3 | 0.00 | 0.03 | 0.00 | 88 | 1015.5 |
| 20260507125025 | 6 | 225 | 11.3 | 17.7 | 0.00 | 0.03 | 0.00 | 88 | 1015.5 |
| 20260507124547 | 6 | 196 | 9.7 | 16.1 | 0.00 | 0.03 | 0.00 | 89 | 1015.4 |
| 20260507124025 | 6 | 206 | 9.7 | 16.1 | 0.00 | 0.03 | 0.00 | 89 | 1015.4 |
| 20260507123531 | 6 | 208 | 8.0 | 12.9 | 0.00 | 0.03 | 0.00 | 90 | 1015.3 |
| 20260507123044 | 5 | 207 | 6.4 | 11.3 | 0.00 | 0.03 | 0.00 | 90 | 1015.3 |
| 20260507122525 | 5 | 203 | 6.4 | 11.3 | 0.00 | 0.03 | 0.00 | 90 | 1015.3 |
| 20260507122025 | 5 | 199 | 6.4 | 12.9 | 0.00 | 0.03 | 0.00 | 90 | 1015.3 |
| 20260507121544 | 5 | 197 | 6.4 | 12.9 | 0.00 | 0.03 | 0.00 | 90 | 1015.3 |
| 20260507121025 | 5 | 194 | 6.4 | 11.3 | 0.00 | 0.03 | 0.00 | 90 | 1015.3 |
| 20260507120524 | 5 | 194 | 6.4 | 11.3 | 0.00 | 0.03 | 0.00 | 90 | 1015.4 |
| 20260507120044 | 5 | 193 | 6.4 | 11.3 | 0.00 | 0.03 | 0.00 | 89 | 1015.4 |
| 20260507115525 | 5 | 195 | 6.4 | 11.3 | 0.00 | 0.03 | 0.00 | 89 | 1015.3 |
| 20260507115024 | 5 | 204 | 6.4 | 11.3 | 0.00 | 0.03 | 0.00 | 89 | 1015.4 |
| 20260507114558 | 5 | 197 | 6.4 | 12.9 | 0.00 | 0.03 | 0.00 | 89 | 1015.3 |
| 20260507114025 | 5 | 194 | 8.0 | 14.5 | 0.00 | 0.03 | 0.00 | 89 | 1015.3 |
| 20260507113525 | 5 | 217 | 9.7 | 16.1 | 0.00 | 0.03 | 0.00 | 89 | 1015.4 |
| 20260507113041 | 5 | 219 | 9.7 | 16.1 | 0.00 | 0.03 | 0.00 | 89 | 1015.5 |
| 20260507112525 | 5 | 215 | 9.7 | 12.9 | 0.00 | 0.03 | 0.00 | 89 | 1015.5 |
| 20260507112027 | 5 | 213 | 8.0 | 16.1 | 0.00 | 0.03 | 0.00 | 89 | 1015.5 |
| 20260507111539 | 5 | 215 | 8.0 | 16.1 | 0.00 | 0.03 | 0.00 | 89 | 1015.5 |
| 20260507111024 | 5 | 198 | 9.7 | 14.5 | 0.00 | 0.03 | 0.00 | 89 | 1015.5 |
| 20260507110525 | 5 | 212 | 6.4 | 12.9 | 0.00 | 0.03 | 0.00 | 89 | 1015.5 |
| 20260507110048 | 5 | 205 | 8.0 | 12.9 | 0.00 | 0.03 | 0.00 | 89 | 1015.4 |
| 20260507105525 | 5 | 211 | 6.4 | 12.9 | 0.00 | 0.03 | 0.00 | 89 | 1015.4 |
| 20260507105025 | 5 | 214 | 8.0 | 12.9 | 0.00 | 0.03 | 0.00 | 89 | 1015.5 |
| 20260507104541 | 5 | 211 | 6.4 | 11.3 | 0.00 | 0.03 | 0.00 | 89 | 1015.5 |
| 20260507104024 | 5 | 211 | 6.4 | 12.9 | 0.00 | 0.03 | 0.00 | 89 | 1015.6 |
| 20260507103522 | 5 | 211 | 6.4 | 12.9 | 0.00 | 0.03 | 0.00 | 89 | 1015.7 |
| 20260507103048 | 5 | 207 | 8.0 | 12.9 | 0.00 | 0.03 | 0.00 | 89 | 1015.7 |
| 20260507102524 | 5 | 220 | 8.0 | 12.9 | 0.00 | 0.03 | 0.00 | 89 | 1015.7 |
| 20260507102025 | 5 | 234 | 6.4 | 12.9 | 0.00 | 0.03 | 0.00 | 88 | 1015.8 |
| 20260507101540 | 5 | 214 | 8.0 | 16.1 | 0.00 | 0.03 | 0.00 | 88 | 1015.8 |
| 20260507101025 | 5 | 217 | 8.0 | 16.1 | 0.00 | 0.03 | 0.00 | 88 | 1015.9 |
| 20260507100525 | 5 | 216 | 8.0 | 16.1 | 0.00 | 0.03 | 0.00 | 88 | 1015.9 |
| 20260507100050 | 5 | 216 | 9.7 | 16.1 | 0.00 | 0.03 | 0.00 | 88 | 1015.9 |
| 20260507095525 | 5 | 217 | 8.0 | 14.5 | 0.00 | 0.03 | 0.00 | 87 | 1015.9 |
| 20260507095025 | 6 | 210 | 8.0 | 14.5 | 0.00 | 0.03 | 0.00 | 87 | 1016.0 |
| 20260507094556 | 6 | 215 | 9.7 | 14.5 | 0.00 | 0.03 | 0.00 | 87 | 1016.0 |
| 20260507094025 | 6 | 226 | 8.0 | 14.5 | 0.00 | 0.03 | 0.00 | 86 | 1016.1 |
| 20260507093525 | 6 | 219 | 8.0 | 17.7 | 0.00 | 0.03 | 0.00 | 86 | 1016.1 |
| 20260507093044 | 6 | 223 | 9.7 | 17.7 | 0.00 | 0.03 | 0.00 | 86 | 1015.9 |
| 20260507092525 | 6 | 227 | 9.7 | 16.1 | 0.00 | 0.03 | 0.00 | 86 | 1016.0 |
| 20260507092024 | 6 | 228 | 9.7 | 16.1 | 0.00 | 0.03 | 0.00 | 86 | 1016.0 |
| 20260507091540 | 6 | 219 | 9.7 | 16.1 | 0.00 | 0.03 | 0.00 | 86 | 1016.0 |
| 20260507091025 | 6 | 201 | 9.7 | 16.1 | 0.00 | 0.03 | 0.00 | 86 | 1016.0 |
| 20260507090526 | 6 | 217 | 8.0 | 14.5 | 0.00 | 0.03 | 0.00 | 86 | 1016.0 |
| 20260507090043 | 6 | 221 | 6.4 | 16.1 | 0.00 | 0.03 | 0.00 | 86 | 1016.0 |
| 20260507085525 | 6 | 224 | 8.0 | 16.1 | 0.00 | 0.05 | 0.00 | 86 | 1016.0 |
| 20260507085025 | 6 | 215 | 6.4 | 12.9 | 0.00 | 0.05 | 0.00 | 86 | 1016.0 |
| 20260507084544 | 6 | 218 | 6.4 | 11.3 | 0.00 | 0.05 | 0.00 | 85 | 1016.1 |
| 20260507084026 | 6 | 219 | 6.4 | 11.3 | 0.00 | 0.05 | 0.00 | 84 | 1016.1 |
| 20260507083526 | 6 | 219 | 4.8 | 12.9 | 0.00 | 0.05 | 0.00 | 84 | 1016.1 |
| 20260507083044 | 6 | 224 | 8.0 | 14.5 | 0.00 | 0.05 | 0.00 | 84 | 1016.2 |
| 20260507082524 | 6 | 224 | 6.4 | 14.5 | 0.00 | 0.05 | 0.00 | 84 | 1016.3 |
| 20260507082025 | 7 | 232 | 6.4 | 14.5 | 0.00 | 0.05 | 0.00 | 83 | 1016.4 |
| 20260507081544 | 7 | 226 | 6.4 | 14.5 | 0.00 | 0.05 | 0.00 | 83 | 1016.4 |
| 20260507081025 | 7 | 226 | 8.0 | 12.9 | 0.00 | 0.05 | 0.00 | 83 | 1016.4 |
| 20260507080525 | 7 | 220 | 8.0 | 14.5 | 0.00 | 0.05 | 0.00 | 82 | 1016.5 |
| 20260507080045 | 7 | 220 | 8.0 | 14.5 | 0.00 | 0.05 | 0.00 | 82 | 1016.6 |
| 20260507075525 | 7 | 240 | 9.7 | 14.5 | 0.00 | 0.05 | 0.00 | 82 | 1016.6 |
| 20260507075025 | 7 | 229 | 6.4 | 14.5 | 0.00 | 0.05 | 0.00 | 82 | 1016.7 |
| 20260507074547 | 7 | 229 | 6.4 | 14.5 | 0.00 | 0.05 | 0.00 | 82 | 1016.7 |
| 20260507074025 | 7 | 229 | 6.4 | 14.5 | 0.00 | 0.05 | 0.00 | 82 | 1016.8 |
| 20260507073526 | 7 | 219 | 8.0 | 14.5 | 0.00 | 0.05 | 0.00 | 82 | 1016.8 |
| 20260507073045 | 7 | 223 | 6.4 | 16.1 | 0.00 | 0.05 | 0.00 | 81 | 1016.8 |
| 20260507072525 | 7 | 223 | 8.0 | 16.1 | 0.00 | 0.05 | 0.00 | 81 | 1017.0 |
| 20260507072024 | 7 | 247 | 8.0 | 16.1 | 0.00 | 0.05 | 0.00 | 81 | 1017.1 |
| 20260507071546 | 7 | 227 | 8.0 | 14.5 | 0.00 | 0.05 | 0.00 | 81 | 1017.1 |
| 20260507071025 | 7 | 224 | 8.0 | 14.5 | 0.00 | 0.05 | 0.00 | 81 | 1017.2 |
| 20260507070526 | 7 | 216 | 8.0 | 12.9 | 0.00 | 0.05 | 0.00 | 80 | 1017.2 |
| 20260507070054 | 7 | 217 | 8.0 | 17.7 | 0.00 | 0.05 | 0.00 | 80 | 1017.2 |
| 20260507065525 | 7 | 224 | 8.0 | 17.7 | 0.00 | 0.05 | 0.00 | 80 | 1017.4 |
| 20260507065028 | 7 | 228 | 6.4 | 17.7 | 0.00 | 0.05 | 0.00 | 79 | 1017.4 |
| 20260507064550 | 7 | 239 | 8.0 | 17.7 | 0.00 | 0.05 | 0.00 | 79 | 1017.4 |
| 20260507064026 | 7 | 227 | 9.7 | 16.1 | 0.00 | 0.05 | 0.00 | 80 | 1017.5 |
| 20260507063526 | 7 | 221 | 6.4 | 12.9 | 0.00 | 0.05 | 0.00 | 79 | 1017.4 |
| 20260507063101 | 7 | 218 | 4.8 | 11.3 | 0.00 | 0.05 | 0.00 | 79 | 1017.5 |
| 20260507062526 | 7 | 218 | 6.4 | 11.3 | 0.00 | 0.05 | 0.00 | 80 | 1017.5 |
| 20260507062025 | 7 | 217 | 4.8 | 8.0 | 0.00 | 0.05 | 0.00 | 79 | 1017.6 |
| 20260507061544 | 7 | 217 | 4.8 | 11.3 | 0.00 | 0.05 | 0.00 | 79 | 1017.6 |
| 20260507061025 | 7 | 217 | 4.8 | 11.3 | 0.00 | 0.05 | 0.00 | 79 | 1017.6 |
| 20260507060524 | 7 | 214 | 3.2 | 8.0 | 0.00 | 0.05 | 0.00 | 79 | 1017.6 |
| 20260507060053 | 7 | 215 | 3.2 | 6.4 | 0.00 | 0.05 | 0.00 | 78 | 1017.7 |
| 20260507055526 | 7 | 215 | 3.2 | 6.4 | 0.00 | 0.05 | 0.00 | 78 | 1017.7 |
| 20260507055025 | 7 | 213 | 3.2 | 6.4 | 0.00 | 0.05 | 0.00 | 78 | 1017.7 |
| 20260507054541 | 7 | 212 | 3.2 | 6.4 | 0.00 | 0.05 | 0.00 | 78 | 1017.7 |
| 20260507054026 | 7 | 213 | 3.2 | 8.0 | 0.00 | 0.05 | 0.00 | 77 | 1017.7 |
| 20260507053526 | 8 | 213 | 3.2 | 8.0 | 0.00 | 0.05 | 0.00 | 76 | 1017.7 |
| 20260507053044 | 8 | 213 | 4.8 | 9.7 | 0.00 | 0.05 | 0.00 | 75 | 1017.7 |
| 20260507052525 | 8 | 213 | 4.8 | 9.7 | 0.00 | 0.05 | 0.00 | 75 | 1017.7 |
| 20260507052025 | 8 | 213 | 4.8 | 9.7 | 0.00 | 0.05 | 0.00 | 75 | 1017.8 |
| 20260507051542 | 8 | 213 | 4.8 | 9.7 | 0.00 | 0.05 | 0.00 | 75 | 1017.8 |
| 20260507051025 | 8 | 210 | 3.2 | 8.0 | 0.00 | 0.05 | 0.00 | 74 | 1017.8 |
| 20260507050525 | 8 | 210 | 3.2 | 11.3 | 0.00 | 0.05 | 0.00 | 73 | 1017.8 |
| 20260507050040 | 8 | 209 | 4.8 | 11.3 | 0.00 | 0.05 | 0.00 | 73 | 1017.8 |
| 20260507045526 | 8 | 224 | 4.8 | 9.7 | 0.00 | 0.05 | 0.05 | 72 | 1017.9 |
| 20260507045027 | 8 | 225 | 4.8 | 11.3 | 0.00 | 0.05 | 0.05 | 72 | 1017.8 |
| 20260507044556 | 8 | 222 | 6.4 | 12.9 | 0.00 | 0.05 | 0.05 | 71 | 1017.8 |
| 20260507044027 | 9 | 229 | 4.8 | 12.9 | 0.00 | 0.05 | 0.05 | 71 | 1017.8 |
| 20260507043525 | 9 | 223 | 6.4 | 11.3 | 0.00 | 0.05 | 0.05 | 70 | 1017.8 |
| 20260507043042 | 9 | 227 | 6.4 | 11.3 | 0.00 | 0.05 | 0.05 | 70 | 1017.9 |
| 20260507042526 | 9 | 229 | 4.8 | 11.3 | 0.00 | 0.05 | 0.05 | 69 | 1017.8 |
| 20260507042028 | 9 | 229 | 6.4 | 12.9 | 0.00 | 0.05 | 0.05 | 68 | 1017.8 |
| 20260507041546 | 10 | 234 | 4.8 | 12.9 | 0.00 | 0.05 | 0.05 | 68 | 1017.9 |
| 20260507041025 | 10 | 237 | 6.4 | 12.9 | 0.00 | 0.05 | 0.05 | 67 | 1017.9 |
| 20260507040527 | 10 | 223 | 4.8 | 11.3 | 0.00 | 0.05 | 0.05 | 67 | 1017.9 |
| 20260507040047 | 10 | 223 | 4.8 | 11.3 | 0.00 | 0.05 | 0.05 | 66 | 1017.9 |
| 20260507035529 | 10 | 222 | 4.8 | 11.3 | 0.00 | 0.05 | 0.05 | 65 | 1017.9 |
| 20260507035026 | 10 | 223 | 4.8 | 11.3 | 0.00 | 0.05 | 0.05 | 65 | 1017.9 |
| 20260507034546 | 10 | 223 | 4.8 | 11.3 | 0.00 | 0.05 | 0.05 | 65 | 1017.9 |
| 20260507034027 | 10 | 222 | 4.8 | 9.7 | 0.00 | 0.05 | 0.05 | 65 | 1018.0 |
| 20260507033526 | 10 | 219 | 4.8 | 11.3 | 0.00 | 0.05 | 0.05 | 65 | 1018.0 |
| 20260507033057 | 10 | 219 | 4.8 | 11.3 | 0.00 | 0.05 | 0.05 | 65 | 1018.0 |
| 20260507032613 | 10 | 219 | 6.4 | 11.3 | 0.00 | 0.05 | 0.05 | 65 | 1018.0 |
| 20260507032029 | 10 | 217 | 4.8 | 9.7 | 0.00 | 0.05 | 0.05 | 64 | 1018.0 |
| 20260507031554 | 10 | 217 | 4.8 | 9.7 | 0.00 | 0.05 | 0.05 | 65 | 1017.9 |
| 20260507031026 | 10 | 216 | 4.8 | 8.0 | 0.00 | 0.05 | 0.05 | 65 | 1017.9 |
| 20260507030526 | 10 | 215 | 3.2 | 8.0 | 0.00 | 0.05 | 0.05 | 64 | 1017.8 |
| 20260507030104 | 10 | 215 | 3.2 | 9.7 | 0.00 | 0.05 | 0.05 | 64 | 1017.9 |
| 20260507025525 | 10 | 216 | 4.8 | 9.7 | 0.00 | 0.05 | 0.05 | 63 | 1017.9 |
| 20260507025027 | 10 | 213 | 4.8 | 9.7 | 0.00 | 0.05 | 0.05 | 63 | 1017.9 |
| 20260507024601 | 10 | 213 | 3.2 | 9.7 | 0.00 | 0.05 | 0.05 | 63 | 1017.9 |
| 20260507024025 | 10 | 214 | 4.8 | 9.7 | 0.00 | 0.05 | 0.05 | 63 | 1017.9 |
| 20260507023525 | 10 | 213 | 4.8 | 11.3 | 0.00 | 0.05 | 0.05 | 63 | 1017.9 |
| 20260507023041 | 10 | 213 | 6.4 | 11.3 | 0.00 | 0.05 | 0.05 | 63 | 1017.9 |
| 20260507022525 | 11 | 216 | 6.4 | 11.3 | 0.00 | 0.05 | 0.05 | 63 | 1017.8 |
| 20260507022025 | 11 | 216 | 6.4 | 9.7 | 0.00 | 0.05 | 0.05 | 63 | 1017.7 |
| 20260507021553 | 11 | 214 | 4.8 | 8.0 | 0.00 | 0.05 | 0.05 | 62 | 1017.7 |
| 20260507021026 | 11 | 215 | 4.8 | 9.7 | 0.00 | 0.05 | 0.05 | 62 | 1017.6 |
| 20260507020526 | 11 | 215 | 4.8 | 9.7 | 0.00 | 0.05 | 0.05 | 61 | 1017.5 |
| 20260507020055 | 10 | 214 | 4.8 | 9.7 | 0.00 | 0.05 | 0.05 | 62 | 1017.6 |
| 20260507015525 | 10 | 213 | 3.2 | 6.4 | 0.00 | 0.05 | 0.05 | 61 | 1017.4 |
| 20260507015025 | 10 | 213 | 3.2 | 8.0 | 0.00 | 0.05 | 0.05 | 60 | 1017.3 |
| 20260507014554 | 10 | 213 | 3.2 | 8.0 | 0.00 | 0.05 | 0.05 | 59 | 1017.2 |
| 20260507014026 | 11 | 214 | 3.2 | 8.0 | 0.00 | 0.05 | 0.05 | 59 | 1017.1 |
| 20260507013525 | 11 | 214 | 4.8 | 8.0 | 0.00 | 0.05 | 0.05 | 58 | 1017.2 |
| 20260507013043 | 11 | 215 | 3.2 | 8.0 | 0.00 | 0.05 | 0.05 | 56 | 1017.2 |
| 20260507012529 | 11 | 215 | 3.2 | 8.0 | 0.00 | 0.05 | 0.05 | 55 | 1017.2 |
| 20260507012026 | 11 | 201 | 3.2 | 6.4 | 0.00 | 0.05 | 0.05 | 54 | 1017.1 |
| 20260507011547 | 11 | 201 | 3.2 | 8.0 | 0.00 | 0.05 | 0.05 | 53 | 1017.2 |
| 20260507011028 | 12 | 202 | 3.2 | 8.0 | 0.00 | 0.05 | 0.05 | 52 | 1017.2 |
| 20260507010525 | 12 | 202 | 4.8 | 8.0 | 0.00 | 0.05 | 0.05 | 50 | 1017.2 |
| 20260507010046 | 12 | 202 | 4.8 | 9.7 | 0.00 | 0.05 | 0.05 | 49 | 1017.1 |
| 20260507005525 | 12 | 245 | 4.8 | 9.7 | 0.00 | 0.05 | 0.05 | 48 | 1017.0 |
| 20260507005032 | 12 | 210 | 4.8 | 9.7 | 0.00 | 0.05 | 0.05 | 47 | 1017.2 |
| 20260507004546 | 12 | 230 | 4.8 | 11.3 | 0.00 | 0.05 | 0.05 | 46 | 1017.3 |
| 20260507004026 | 13 | 229 | 4.8 | 14.5 | 0.00 | 0.05 | 0.05 | 46 | 1017.2 |
| 20260507003526 | 13 | 228 | 6.4 | 14.5 | 0.00 | 0.05 | 0.05 | 45 | 1017.1 |
| 20260507003042 | 13 | 232 | 4.8 | 14.5 | 0.00 | 0.05 | 0.05 | 45 | 1017.2 |
| 20260507002525 | 13 | 225 | 4.8 | 14.5 | 0.00 | 0.05 | 0.05 | 45 | 1017.3 |
| 20260507002026 | 13 | 234 | 4.8 | 14.5 | 0.00 | 0.05 | 0.05 | 44 | 1017.2 |
| 20260507001541 | 14 | 236 | 4.8 | 14.5 | 0.00 | 0.05 | 0.05 | 45 | 1017.2 |
| 20260507001025 | 14 | 240 | 6.4 | 16.1 | 0.00 | 0.05 | 0.05 | 44 | 1017.2 |
| 20260507000525 | 14 | 250 | 4.8 | 16.1 | 0.00 | 0.05 | 0.05 | 43 | 1017.2 |
| 20260507000043 | 14 | 227 | 8.0 | 16.1 | 0.00 | 0.05 | 0.05 | 44 | 1017.3 |
| 20260506235525 | 14 | 268 | 9.7 | 16.1 | 0.00 | 0.05 | 0.05 | 44 | 1017.3 |
| 20260506235025 | 14 | 227 | 4.8 | 12.9 | 0.00 | 0.05 | 0.05 | 42 | 1017.4 |
| 20260506234553 | 15 | 236 | 6.4 | 12.9 | 0.00 | 0.05 | 0.05 | 40 | 1017.4 |
| 20260506234026 | 15 | 290 | 4.8 | 16.1 | 0.00 | 0.05 | 0.05 | 38 | 1017.4 |
| 20260506233526 | 15 | 234 | 4.8 | 16.1 | 0.00 | 0.05 | 0.05 | 39 | 1017.4 |
| 20260506233051 | 15 | 302 | 3.2 | 12.9 | 0.00 | 0.05 | 0.05 | 39 | 1017.4 |
| 20260506232525 | 15 | 306 | 6.4 | 12.9 | 0.00 | 0.05 | 0.05 | 39 | 1017.4 |
| 20260506232025 | 15 | 292 | 6.4 | 12.9 | 0.00 | 0.05 | 0.05 | 37 | 1017.4 |
| 20260506231552 | 15 | 0 | 4.8 | 12.9 | 0.00 | 0.05 | 0.05 | 41 | 1017.3 |
| 20260506231026 | 15 | 254 | 4.8 | 12.9 | 0.00 | 0.05 | 0.05 | 41 | 1017.4 |
| 20260506230529 | 15 | 273 | 4.8 | 14.5 | 0.00 | 0.05 | 0.05 | 39 | 1017.3 |
| 20260506230046 | 15 | 225 | 8.0 | 17.7 | 0.00 | 0.05 | 0.05 | 40 | 1017.4 |
| 20260506225525 | 15 | 297 | 8.0 | 17.7 | 0.00 | 0.05 | 0.05 | 38 | 1017.5 |
| 20260506225027 | 15 | 355 | 1.6 | 8.0 | 0.00 | 0.05 | 0.05 | 41 | 1017.4 |
| 20260506224542 | 15 | 317 | 3.2 | 12.9 | 0.00 | 0.05 | 0.05 | 39 | 1017.4 |
| 20260506224025 | 15 | 230 | 3.2 | 12.9 | 0.00 | 0.05 | 0.05 | 41 | 1017.4 |
| 20260506223523 | 15 | 267 | 1.6 | 12.9 | 0.00 | 0.05 | 0.05 | 39 | 1017.4 |
| 20260506223038 | 14 | 284 | 1.6 | 12.9 | 0.00 | 0.05 | 0.05 | 42 | 1017.5 |
| 20260506222526 | 13 | 317 | 4.8 | 12.9 | 0.00 | 0.05 | 0.05 | 41 | 1017.6 |
| 20260506222023 | 14 | 280 | 1.6 | 9.7 | 0.00 | 0.05 | 0.05 | 44 | 1017.6 |
| 20260506221545 | 14 | 279 | 3.2 | 11.3 | 0.00 | 0.05 | 0.05 | 42 | 1017.6 |
| 20260506221023 | 14 | 0 | 1.6 | 11.3 | 0.00 | 0.05 | 0.05 | 41 | 1017.6 |
| 20260506220526 | 14 | 265 | 0.0 | 11.3 | 0.00 | 0.05 | 0.05 | 42 | 1017.6 |
| 20260506220052 | 14 | 262 | 1.6 | 11.3 | 0.00 | 0.05 | 0.05 | 43 | 1017.7 |
| 20260506215525 | 14 | 251 | 4.8 | 11.3 | 0.00 | 0.05 | 0.05 | 42 | 1017.7 |
| 20260506215023 | 14 | 238 | 1.6 | 11.3 | 0.00 | 0.05 | 0.05 | 42 | 1017.8 |
| 20260506214546 | 14 | 0 | 1.6 | 11.3 | 0.00 | 0.05 | 0.05 | 43 | 1017.8 |
| 20260506214029 | 14 | 288 | 3.2 | 11.3 | 0.00 | 0.05 | 0.05 | 41 | 1017.9 |
| 20260506213526 | 14 | 285 | 4.8 | 12.9 | 0.00 | 0.05 | 0.05 | 43 | 1017.8 |
| 20260506213043 | 14 | 281 | 4.8 | 16.1 | 0.00 | 0.05 | 0.05 | 40 | 1017.9 |
| 20260506212523 | 14 | 322 | 6.4 | 16.1 | 0.00 | 0.05 | 0.05 | 41 | 1018.0 |
| 20260506212028 | 15 | 285 | 1.6 | 4.8 | 0.00 | 0.05 | 0.05 | 41 | 1018.0 |
| 20260506211541 | 14 | 0 | 0.0 | 4.8 | 0.00 | 0.05 | 0.05 | 42 | 1018.0 |
| 20260506211025 | 14 | 15 | 0.0 | 8.0 | 0.00 | 0.05 | 0.05 | 41 | 1018.1 |
| 20260506210523 | 14 | 15 | 1.6 | 8.0 | 0.00 | 0.05 | 0.05 | 41 | 1018.1 |
| 20260506210041 | 13 | 111 | 3.2 | 9.7 | 0.00 | 0.05 | 0.05 | 45 | 1018.2 |
| 20260506205525 | 13 | 0 | 0.0 | 9.7 | 0.00 | 0.05 | 0.05 | 44 | 1018.3 |
| 20260506205023 | 13 | 69 | 3.2 | 11.3 | 0.00 | 0.05 | 0.05 | 43 | 1018.4 |
| 20260506204548 | 13 | 128 | 4.8 | 11.3 | 0.00 | 0.05 | 0.05 | 42 | 1018.4 |
| 20260506204026 | 13 | 63 | 1.6 | 6.4 | 0.00 | 0.05 | 0.05 | 43 | 1018.4 |
| 20260506203527 | 13 | 63 | 0.0 | 6.4 | 0.00 | 0.05 | 0.05 | 42 | 1018.5 |
| 20260506203046 | 13 | 12 | 3.2 | 9.7 | 0.00 | 0.05 | 0.05 | 42 | 1018.6 |
| 20260506202526 | 13 | 0 | 1.6 | 9.7 | 0.00 | 0.05 | 0.05 | 42 | 1018.6 |
| 20260506202026 | 13 | 348 | 4.8 | 9.7 | 0.00 | 0.05 | 0.05 | 43 | 1018.7 |
| 20260506201542 | 13 | 0 | 0.0 | 9.7 | 0.00 | 0.05 | 0.05 | 42 | 1018.7 |
| 20260506201026 | 13 | 355 | 4.8 | 12.9 | 0.00 | 0.05 | 0.05 | 41 | 1018.9 |
| 20260506200525 | 13 | 315 | 0.0 | 12.9 | 0.00 | 0.05 | 0.05 | 45 | 1018.9 |
| 20260506200044 | 13 | 309 | 4.8 | 12.9 | 0.00 | 0.05 | 0.05 | 41 | 1019.1 |
| 20260506195529 | 13 | 309 | 3.2 | 11.3 | 0.00 | 0.05 | 0.05 | 42 | 1019.2 |
| 20260506195026 | 13 | 294 | 1.6 | 11.3 | 0.00 | 0.05 | 0.05 | 42 | 1019.2 |
| 20260506194547 | 13 | 0 | 1.6 | 9.7 | 0.00 | 0.05 | 0.05 | 42 | 1019.3 |
| 20260506194025 | 13 | 86 | 3.2 | 12.9 | 0.00 | 0.05 | 0.05 | 42 | 1019.3 |
| 20260506193525 | 13 | 337 | 3.2 | 12.9 | 0.00 | 0.05 | 0.05 | 41 | 1019.3 |
| 20260506193045 | 13 | 341 | 4.8 | 11.3 | 0.00 | 0.05 | 0.05 | 43 | 1019.3 |
| 20260506192527 | 13 | 0 | 0.0 | 11.3 | 0.00 | 0.05 | 0.05 | 44 | 1019.3 |
| 20260506192029 | 13 | 192 | 4.8 | 11.3 | 0.00 | 0.05 | 0.05 | 42 | 1019.3 |
| 20260506191545 | 13 | 259 | 4.8 | 12.9 | 0.00 | 0.05 | 0.05 | 44 | 1019.3 |
| 20260506191026 | 13 | 212 | 4.8 | 14.5 | 0.00 | 0.05 | 0.05 | 45 | 1019.3 |
| 20260506190523 | 13 | 250 | 3.2 | 14.5 | 0.00 | 0.05 | 0.05 | 44 | 1019.3 |
| 20260506190042 | 13 | 86 | 1.6 | 6.4 | 0.00 | 0.05 | 0.05 | 46 | 1019.3 |
| 20260506185525 | 13 | 119 | 1.6 | 11.3 | 0.00 | 0.05 | 0.05 | 46 | 1019.3 |
| 20260506185025 | 12 | 220 | 4.8 | 11.3 | 0.00 | 0.05 | 0.05 | 46 | 1019.3 |
| 20260506184550 | 12 | 266 | 1.6 | 11.3 | 0.00 | 0.05 | 0.05 | 45 | 1019.4 |
| 20260506184026 | 12 | 325 | 3.2 | 12.9 | 0.00 | 0.05 | 0.05 | 46 | 1019.4 |
| 20260506183526 | 12 | 281 | 6.4 | 12.9 | 0.00 | 0.05 | 0.05 | 44 | 1019.5 |
| 20260506183047 | 13 | 304 | 3.2 | 16.1 | 0.00 | 0.05 | 0.05 | 45 | 1019.4 |
| 20260506182523 | 12 | 283 | 4.8 | 16.1 | 0.00 | 0.05 | 0.05 | 46 | 1019.4 |
| 20260506182027 | 13 | 290 | 4.8 | 16.1 | 0.00 | 0.05 | 0.05 | 46 | 1019.5 |
| 20260506181544 | 12 | 334 | 4.8 | 12.9 | 0.00 | 0.05 | 0.05 | 44 | 1019.4 |
| 20260506181027 | 13 | 309 | 3.2 | 8.0 | 0.00 | 0.05 | 0.05 | 45 | 1019.5 |
| 20260506180526 | 12 | 0 | 0.0 | 14.5 | 0.00 | 0.05 | 0.05 | 48 | 1019.6 |
| 20260506180046 | 12 | 0 | 1.6 | 14.5 | 0.00 | 0.05 | 0.05 | 47 | 1019.6 |
| 20260506175525 | 12 | 286 | 3.2 | 14.5 | 0.00 | 0.05 | 0.05 | 48 | 1019.7 |